WZZ27 LICA-LIRQ

Flight info

Callsign WZZ27
Flight time 1h 16m
Altitude 34000
Route ARBUM M620 SOR M736 TEA L995 IBRID
Aircraft A20N/M-SDE2E3FGHIRWXY/LB1

Departure

Time 2026-05-07 15:35
Airport Lamezia Terme Sant'Eufemia International Airport (LICA)

Arrival

Time 2026-05-07 16:51
Airport Florence Airport, Peretola (LIRQ)
Time Latitude Longitude Altitude Speed Heading
2026-05-07 15:10 38.90872 16.24444 30 ft 0 kts 13°
2026-05-07 15:30 38.90873 16.24446 39 ft 0 kts 28°
2026-05-07 15:31 38.90873 16.24450 64 ft 0 kts 62°
2026-05-07 15:31 38.90871 16.24453 65 ft 0 kts 92°
2026-05-07 15:31 38.90850 16.24462 28 ft 8 kts 174°
2026-05-07 15:31 38.90822 16.24400 38 ft 11 kts 271°
2026-05-07 15:32 38.90820 16.24235 37 ft 21 kts 234°
2026-05-07 15:32 38.90791 16.24069 37 ft 16 kts 279°
2026-05-07 15:32 38.90805 16.23866 35 ft 28 kts 275°
2026-05-07 15:32 38.90836 16.23598 33 ft 33 kts 279°
2026-05-07 15:33 38.90875 16.23294 31 ft 36 kts 277°
2026-05-07 15:33 38.90846 16.23047 29 ft 11 kts 236°
2026-05-07 15:33 38.90795 16.22956 29 ft 14 kts 232°
2026-05-07 15:33 38.90707 16.22924 29 ft 14 kts 140°
2026-05-07 15:34 38.90685 16.22993 30 ft 7 kts 100°
2026-05-07 15:34 38.90670 16.23123 32 ft 37 kts 97°
2026-05-07 15:34 38.90600 16.23733 34 ft 98 kts 99°
2026-05-07 15:34 38.90480 16.24788 164 ft 130 kts 96°
2026-05-07 15:35 38.90332 16.25947 619 ft 135 kts 95°
2026-05-07 15:35 38.90253 16.27136 1262 ft 134 kts 95°
2026-05-07 15:35 38.90157 16.28315 1919 ft 133 kts 96°
2026-05-07 15:35 38.90030 16.29561 2310 ft 148 kts 101°
2026-05-07 15:36 38.89844 16.30953 2710 ft 168 kts 102°
2026-05-07 15:36 38.89611 16.32500 3115 ft 189 kts 103°
2026-05-07 15:36 38.89336 16.34252 3628 ft 211 kts 103°
2026-05-07 15:36 38.89030 16.36208 4192 ft 233 kts 104°
2026-05-07 15:37 38.88706 16.38291 5010 ft 245 kts 104°
2026-05-07 15:37 38.88370 16.40464 5967 ft 252 kts 105°
2026-05-07 15:37 38.88021 16.42707 6883 ft 260 kts 105°
2026-05-07 15:37 38.87663 16.45017 7741 ft 267 kts 105°
2026-05-07 15:38 38.87295 16.47375 8498 ft 278 kts 106°
2026-05-07 15:38 38.86908 16.49856 9332 ft 287 kts 106°
2026-05-07 15:38 38.86508 16.52420 10113 ft 297 kts 106°
2026-05-07 15:38 38.85968 16.55064 10550 ft 314 kts 120°
2026-05-07 15:39 38.84633 16.57277 10798 ft 326 kts 146°
2026-05-07 15:39 38.82591 16.58545 11385 ft 328 kts 170°
2026-05-07 15:39 38.80327 16.58594 12157 ft 328 kts 193°
2026-05-07 15:39 38.78227 16.57457 12934 ft 331 kts 216°
2026-05-07 15:40 38.76633 16.55320 13720 ft 336 kts 237°
2026-05-07 15:40 38.75778 16.52570 14485 ft 340 kts 255°
2026-05-07 15:40 38.75636 16.49521 15256 ft 346 kts 275°
2026-05-07 15:40 38.76345 16.46539 15966 ft 356 kts 294°
2026-05-07 15:41 38.77816 16.43979 16594 ft 368 kts 313°
2026-05-07 15:41 38.79837 16.41908 17312 ft 374 kts 319°
2026-05-07 15:41 38.81869 16.39826 18067 ft 373 kts 314°
2026-05-07 15:41 38.83736 16.37510 18704 ft 373 kts 309°
2026-05-07 15:42 38.85452 16.34995 19356 ft 373 kts 305°
2026-05-07 15:42 38.87045 16.32416 20036 ft 373 kts 303°
2026-05-07 15:42 38.88619 16.29752 20682 ft 374 kts 302°
2026-05-07 15:42 38.90216 16.27079 21311 ft 378 kts 306°
2026-05-07 15:43 38.92047 16.24603 21956 ft 384 kts 311°
2026-05-07 15:43 38.93967 16.22256 22565 ft 386 kts 311°
2026-05-07 15:43 38.95921 16.19853 23183 ft 389 kts 311°
2026-05-07 15:43 38.97880 16.17438 23742 ft 391 kts 310°
2026-05-07 15:44 38.99828 16.15036 24318 ft 392 kts 310°
2026-05-07 15:44 39.01798 16.12607 24890 ft 392 kts 310°
2026-05-07 15:44 39.03774 16.10171 25437 ft 394 kts 309°
2026-05-07 15:44 39.05755 16.07725 25952 ft 395 kts 309°
2026-05-07 15:45 39.07740 16.05272 26460 ft 396 kts 309°
2026-05-07 15:45 39.09732 16.02808 26927 ft 397 kts 309°
2026-05-07 15:45 39.11728 16.00335 27391 ft 399 kts 309°
2026-05-07 15:45 39.13734 15.97849 27844 ft 400 kts 308°
2026-05-07 15:46 39.17747 15.92869 28684 ft 404 kts 308°
2026-05-07 15:46 39.19779 15.90344 29070 ft 406 kts 308°
2026-05-07 15:46 39.21824 15.87801 29450 ft 407 kts 308°
2026-05-07 15:47 39.23840 15.85292 29813 ft 409 kts 308°
2026-05-07 15:47 39.25897 15.82728 30172 ft 411 kts 308°
2026-05-07 15:47 39.27975 15.80158 30465 ft 415 kts 310°
2026-05-07 15:47 39.30183 15.77715 30784 ft 419 kts 311°
2026-05-07 15:48 39.32390 15.75296 31094 ft 420 kts 311°
2026-05-07 15:48 39.34616 15.72852 31481 ft 420 kts 311°
2026-05-07 15:48 39.36842 15.70405 31911 ft 418 kts 311°
2026-05-07 15:48 39.39047 15.67977 32363 ft 415 kts 311°
2026-05-07 15:49 39.41248 15.65552 32800 ft 413 kts 310°
2026-05-07 15:49 39.43406 15.63170 33227 ft 411 kts 310°
2026-05-07 15:49 39.45581 15.60766 33635 ft 409 kts 310°
2026-05-07 15:49 39.47752 15.58363 33829 ft 408 kts 310°
2026-05-07 15:50 39.49906 15.55978 33931 ft 406 kts 310°
2026-05-07 15:50 39.54198 15.51217 33969 ft 406 kts 310°
2026-05-07 15:51 39.58473 15.46466 33963 ft 406 kts 309°
2026-05-07 15:51 39.62735 15.41725 33956 ft 406 kts 309°
2026-05-07 15:52 39.67026 15.36943 33946 ft 405 kts 309°
2026-05-07 15:52 39.71267 15.32211 33939 ft 403 kts 309°
2026-05-07 15:53 39.75511 15.27468 33933 ft 401 kts 309°
2026-05-07 15:53 39.79738 15.22740 33927 ft 399 kts 309°
2026-05-07 15:54 39.83922 15.18051 33926 ft 398 kts 309°
2026-05-07 15:54 39.88115 15.13346 33923 ft 396 kts 308°
2026-05-07 15:55 39.92262 15.08683 33918 ft 394 kts 308°
2026-05-07 15:55 39.96390 15.04035 33912 ft 392 kts 308°
2026-05-07 15:56 40.00512 14.99384 33910 ft 391 kts 308°
2026-05-07 15:56 40.04617 14.94746 33902 ft 389 kts 307°
2026-05-07 15:57 40.08708 14.90116 33900 ft 388 kts 307°
2026-05-07 15:57 40.12762 14.85520 33889 ft 387 kts 307°
2026-05-07 15:58 40.16808 14.80926 33888 ft 386 kts 307°
2026-05-07 15:58 40.20867 14.76318 33884 ft 386 kts 307°
2026-05-07 15:59 40.24910 14.71720 33899 ft 386 kts 307°
2026-05-07 15:59 40.28995 14.67063 33902 ft 389 kts 307°
2026-05-07 16:00 40.33071 14.62416 33906 ft 389 kts 307°
2026-05-07 16:00 40.37140 14.57765 33906 ft 390 kts 306°
2026-05-07 16:01 40.41242 14.53069 33905 ft 390 kts 306°
2026-05-07 16:01 40.45314 14.48399 33906 ft 389 kts 306°
2026-05-07 16:02 40.49404 14.43697 33905 ft 391 kts 306°
2026-05-07 16:02 40.53502 14.38979 33907 ft 392 kts 306°
2026-05-07 16:03 40.57876 14.34571 33921 ft 406 kts 315°
2026-05-07 16:03 40.62989 14.31118 33928 ft 425 kts 324°
2026-05-07 16:04 40.68550 14.28319 33929 ft 427 kts 326°
2026-05-07 16:04 40.74105 14.25496 33937 ft 427 kts 326°
2026-05-07 16:05 40.79630 14.22689 33940 ft 427 kts 326°
2026-05-07 16:05 40.85198 14.19858 33939 ft 427 kts 326°
2026-05-07 16:06 40.90708 14.17053 33944 ft 427 kts 326°
2026-05-07 16:06 40.96269 14.14215 33942 ft 428 kts 326°
2026-05-07 16:07 41.01826 14.11375 33945 ft 427 kts 326°
2026-05-07 16:07 41.07351 14.08545 33939 ft 427 kts 327°
2026-05-07 16:08 41.12905 14.05696 33937 ft 427 kts 327°
2026-05-07 16:08 41.18423 14.02859 33935 ft 427 kts 327°
2026-05-07 16:09 41.23979 13.99999 33934 ft 428 kts 328°
2026-05-07 16:09 41.29204 13.96490 33923 ft 412 kts 316°
2026-05-07 16:10 41.33494 13.91667 33947 ft 402 kts 304°
2026-05-07 16:10 41.37345 13.86211 33936 ft 405 kts 305°
2026-05-07 16:11 41.41216 13.80762 33941 ft 407 kts 305°
2026-05-07 16:11 41.45127 13.75228 33943 ft 411 kts 305°
2026-05-07 16:12 41.49036 13.69682 33948 ft 412 kts 305°
2026-05-07 16:12 41.52979 13.64076 33951 ft 414 kts 305°
2026-05-07 16:13 41.56900 13.58491 33962 ft 415 kts 305°
2026-05-07 16:13 41.60863 13.52836 33969 ft 416 kts 305°
2026-05-07 16:14 41.64822 13.47176 33965 ft 416 kts 305°
2026-05-07 16:14 41.68753 13.41548 33967 ft 416 kts 305°
2026-05-07 16:15 41.72707 13.35872 33966 ft 416 kts 305°
2026-05-07 16:15 41.76640 13.30212 33966 ft 416 kts 305°
2026-05-07 16:16 41.80591 13.24504 33964 ft 417 kts 305°
2026-05-07 16:16 41.84542 13.18786 33965 ft 417 kts 304°
2026-05-07 16:17 41.88449 13.13113 33961 ft 416 kts 304°
2026-05-07 16:17 41.91713 13.08366 33957 ft 415 kts 304°
2026-05-07 16:18 41.95643 13.02646 33960 ft 414 kts 304°
2026-05-07 16:18 41.99524 12.96994 33957 ft 416 kts 304°
2026-05-07 16:19 42.03463 12.91239 33952 ft 415 kts 304°
2026-05-07 16:19 42.07381 12.85532 33956 ft 415 kts 304°
2026-05-07 16:20 42.11286 12.79843 33945 ft 414 kts 304°
2026-05-07 16:20 42.15202 12.74122 33944 ft 414 kts 304°
2026-05-07 16:21 42.19090 12.68428 33974 ft 413 kts 304°
2026-05-07 16:21 42.22988 12.62707 33971 ft 413 kts 304°
2026-05-07 16:22 42.26853 12.57024 33969 ft 410 kts 303°
2026-05-07 16:22 42.30732 12.51281 33968 ft 413 kts 303°
2026-05-07 16:23 42.34585 12.45572 33961 ft 412 kts 303°
2026-05-07 16:23 42.38458 12.39822 33958 ft 413 kts 303°
2026-05-07 16:24 42.42320 12.34078 33966 ft 414 kts 303°
2026-05-07 16:24 42.46172 12.28338 33955 ft 413 kts 303°
2026-05-07 16:25 42.50033 12.22573 33943 ft 412 kts 303°
2026-05-07 16:25 42.51962 12.19688 33550 ft 412 kts 303°
2026-05-07 16:25 42.53899 12.16784 32703 ft 417 kts 303°
2026-05-07 16:25 42.55859 12.13831 31568 ft 426 kts 304°
2026-05-07 16:26 42.57843 12.10843 30555 ft 433 kts 305°
2026-05-07 16:26 42.59900 12.07869 29806 ft 428 kts 309°
2026-05-07 16:26 42.62140 12.05259 29272 ft 420 kts 315°
2026-05-07 16:26 42.64542 12.03012 28980 ft 429 kts 321°
2026-05-07 16:27 42.67187 12.01001 28450 ft 438 kts 324°
2026-05-07 16:27 42.69880 11.99049 27849 ft 436 kts 325°
2026-05-07 16:27 42.72532 11.97128 27266 ft 427 kts 325°
2026-05-07 16:27 42.75141 11.95236 26684 ft 421 kts 325°
2026-05-07 16:28 42.77683 11.93387 26122 ft 417 kts 325°
2026-05-07 16:28 42.80238 11.91526 25559 ft 413 kts 325°
2026-05-07 16:28 42.82770 11.89680 24955 ft 411 kts 325°
2026-05-07 16:28 42.85296 11.87836 24416 ft 408 kts 326°
2026-05-07 16:29 42.87769 11.86031 23830 ft 407 kts 326°
2026-05-07 16:29 42.90264 11.84206 23245 ft 404 kts 326°
2026-05-07 16:29 42.92733 11.82401 22674 ft 400 kts 326°
2026-05-07 16:29 42.95171 11.80617 22121 ft 395 kts 326°
2026-05-07 16:30 42.97563 11.78864 21581 ft 392 kts 326°
2026-05-07 16:30 42.99956 11.77110 21024 ft 388 kts 326°
2026-05-07 16:30 43.02339 11.75360 20468 ft 385 kts 327°
2026-05-07 16:30 43.04695 11.73629 19924 ft 383 kts 327°
2026-05-07 16:31 43.07036 11.71907 19374 ft 380 kts 327°
2026-05-07 16:31 43.09341 11.70211 18874 ft 377 kts 327°
2026-05-07 16:31 43.11646 11.68513 18328 ft 376 kts 327°
2026-05-07 16:31 43.13944 11.66818 17812 ft 371 kts 327°
2026-05-07 16:32 43.16183 11.65168 17304 ft 367 kts 327°
2026-05-07 16:32 43.18420 11.63518 16810 ft 364 kts 328°
2026-05-07 16:32 43.20644 11.61875 16311 ft 360 kts 328°
2026-05-07 16:32 43.22844 11.60249 15817 ft 357 kts 328°
2026-05-07 16:33 43.25025 11.58637 15328 ft 355 kts 328°
2026-05-07 16:33 43.27193 11.57034 14840 ft 352 kts 328°
2026-05-07 16:33 43.29318 11.55462 14371 ft 350 kts 328°
2026-05-07 16:33 43.31460 11.53875 13885 ft 348 kts 328°
2026-05-07 16:34 43.33587 11.52298 13378 ft 346 kts 328°
2026-05-07 16:34 43.35703 11.50730 12908 ft 343 kts 328°
2026-05-07 16:34 43.37796 11.49176 12437 ft 340 kts 328°
2026-05-07 16:34 43.39856 11.47646 12226 ft 330 kts 328°
2026-05-07 16:35 43.41842 11.46173 12117 ft 317 kts 328°
2026-05-07 16:35 43.43745 11.44761 12019 ft 305 kts 328°
2026-05-07 16:35 43.45582 11.43394 11980 ft 298 kts 328°
2026-05-07 16:35 43.47380 11.41910 11985 ft 301 kts 320°
2026-05-07 16:36 43.48913 11.40029 11883 ft 296 kts 308°
2026-05-07 16:36 43.50259 11.37902 11650 ft 293 kts 308°
2026-05-07 16:36 43.51602 11.35795 11294 ft 293 kts 308°
2026-05-07 16:36 43.52937 11.33718 11125 ft 286 kts 308°
2026-05-07 16:37 43.54281 11.31623 11038 ft 294 kts 308°
2026-05-07 16:37 43.55635 11.29512 10924 ft 293 kts 308°
2026-05-07 16:37 43.56990 11.27397 10573 ft 294 kts 308°
2026-05-07 16:37 43.58325 11.25310 10219 ft 293 kts 308°
2026-05-07 16:38 43.59672 11.23204 9854 ft 292 kts 308°
2026-05-07 16:38 43.61017 11.21103 9472 ft 290 kts 308°
2026-05-07 16:38 43.62334 11.19030 9056 ft 282 kts 305°
2026-05-07 16:38 43.63152 11.16735 8811 ft 259 kts 277°
2026-05-07 16:39 43.63098 11.14392 8660 ft 235 kts 251°
2026-05-07 16:39 43.62373 11.12463 8410 ft 223 kts 229°
2026-05-07 16:39 43.61324 11.10887 8070 ft 222 kts 227°
2026-05-07 16:39 43.60274 11.09312 7761 ft 222 kts 227°
2026-05-07 16:40 43.59240 11.07744 7477 ft 221 kts 227°
2026-05-07 16:40 43.58210 11.06171 7185 ft 221 kts 228°
2026-05-07 16:40 43.57185 11.04594 6878 ft 221 kts 228°
2026-05-07 16:40 43.56155 11.03000 6508 ft 224 kts 228°
2026-05-07 16:41 43.55116 11.01400 6109 ft 228 kts 228°
2026-05-07 16:41 43.54050 10.99755 5707 ft 231 kts 228°
2026-05-07 16:41 43.52984 10.98116 5297 ft 228 kts 228°
2026-05-07 16:41 43.51933 10.96502 4987 ft 222 kts 227°
2026-05-07 16:42 43.50919 10.94946 4858 ft 215 kts 227°
2026-05-07 16:42 43.49927 10.93426 4588 ft 213 kts 227°
2026-05-07 16:42 43.48978 10.91898 4328 ft 213 kts 238°
2026-05-07 16:42 43.48597 10.89954 4142 ft 212 kts 272°
2026-05-07 16:43 43.49104 10.88062 4016 ft 217 kts 307°
2026-05-07 16:43 43.50368 10.86893 4280 ft 227 kts 342°
2026-05-07 16:43 43.51931 10.86278 4587 ft 237 kts 332°
2026-05-07 16:43 43.53220 10.84885 4243 ft 236 kts 307°
2026-05-07 16:44 43.54297 10.83214 3997 ft 233 kts 321°
2026-05-07 16:44 43.55741 10.82463 4010 ft 219 kts 358°
2026-05-07 16:44 43.57108 10.83122 4010 ft 209 kts 43°
2026-05-07 16:44 43.58108 10.84677 4021 ft 220 kts 52°
2026-05-07 16:45 43.59052 10.86309 4022 ft 216 kts 51°
2026-05-07 16:45 43.60030 10.87901 4005 ft 216 kts 49°
2026-05-07 16:45 43.61027 10.89460 4007 ft 217 kts 48°
2026-05-07 16:45 43.62021 10.91009 3977 ft 218 kts 48°
2026-05-07 16:46 43.63014 10.92554 3818 ft 214 kts 48°
2026-05-07 16:46 43.64011 10.94108 3544 ft 215 kts 48°
2026-05-07 16:46 43.65001 10.95649 3306 ft 213 kts 48°
2026-05-07 16:46 43.65985 10.97182 3075 ft 212 kts 47°
2026-05-07 16:47 43.66952 10.98682 3005 ft 207 kts 48°
2026-05-07 16:47 43.67926 11.00199 3012 ft 214 kts 49°
2026-05-07 16:47 43.68911 11.01736 3001 ft 219 kts 48°
2026-05-07 16:47 43.69930 11.03315 2997 ft 221 kts 48°
2026-05-07 16:48 43.70954 11.04903 2971 ft 220 kts 48°
2026-05-07 16:48 43.71961 11.06471 2727 ft 216 kts 48°
2026-05-07 16:48 43.72939 11.07994 2423 ft 206 kts 49°
2026-05-07 16:48 43.73916 11.09508 2152 ft 216 kts 48°
2026-05-07 16:49 43.74899 11.11036 1852 ft 205 kts 48°
2026-05-07 16:49 43.75808 11.12450 1555 ft 193 kts 46°
2026-05-07 16:49 43.76662 11.13772 1313 ft 177 kts 47°
2026-05-07 16:49 43.77452 11.15000 1061 ft 165 kts 47°
2026-05-07 16:50 43.78183 11.16137 842 ft 151 kts 46°
2026-05-07 16:50 43.78863 11.17189 652 ft 142 kts 46°
2026-05-07 16:50 43.79506 11.18186 475 ft 140 kts 47°
2026-05-07 16:50 43.80148 11.19184 300 ft 139 kts 46°
2026-05-07 16:51 43.80795 11.20198 148 ft 136 kts 45°
2026-05-07 16:51 43.81318 11.20990 146 ft 71 kts 49°
2026-05-07 16:51 43.81470 11.21244 148 ft 19 kts 75°
2026-05-07 16:51 43.81525 11.21331 148 ft 8 kts 328°
2026-05-07 16:52 43.81500 11.21270 147 ft 19 kts 226°
2026-05-07 16:52 43.81380 11.21087 147 ft 28 kts 227°
2026-05-07 16:52 43.81243 11.20880 145 ft 30 kts 228°
2026-05-07 16:52 43.81107 11.20660 139 ft 26 kts 225°
2026-05-07 16:53 43.80977 11.20470 136 ft 28 kts 227°
2026-05-07 16:53 43.80845 11.20267 136 ft 29 kts 228°
2026-05-07 16:53 43.80716 11.20065 136 ft 28 kts 221°
2026-05-07 16:53 43.80557 11.19994 135 ft 9 kts 194°
2026-05-07 16:54 43.80486 11.19970 135 ft 12 kts 194°
2026-05-07 16:54 43.80444 11.19962 134 ft 0 kts 170°
2026-05-07 16:54 43.80441 11.19963 134 ft 3 kts 168°
2026-05-07 16:55 43.80338 11.19975 132 ft 18 kts 179°
2026-05-07 16:55 43.80309 11.20033 132 ft 7 kts 107°
2026-05-07 16:55 43.80287 11.20035 133 ft 11 kts 191°
2026-05-07 16:55 43.80265 11.20032 133 ft 0 kts 171°
2026-05-07 16:58 43.80305 11.19928 132 ft 0 kts 93°
2026-05-07 16:58 43.80303 11.20020 133 ft 0 kts 191°
2026-05-07 16:59 43.80296 11.20013 133 ft 0 kts 175°
2026-05-07 16:59 43.80298 11.20013 133 ft 0 kts 175°
2026-05-07 17:00 43.80299 11.20012 133 ft 0 kts 175°
2026-05-07 17:01 43.80305 11.20012 133 ft 0 kts 355°
2026-05-07 17:01 43.80318 11.20040 133 ft 0 kts 291°
2026-05-07 17:01 43.80302 11.20052 133 ft 0 kts 271°
2026-05-07 17:01 43.80293 11.20044 133 ft 0 kts 356°
2026-05-07 17:05 43.80288 11.20046 133 ft 0 kts 175°
2026-05-07 17:08 43.80263 11.20010 133 ft 0 kts 92°
2026-05-07 17:08 43.80281 11.20031 133 ft 0 kts 92°
2026-05-07 17:09 43.80281 11.20041 133 ft 0 kts 92°